Altus AFB, OK

5:38 AM CDT on April 25, 2018 (GMT -0500)
Altus Air Force Base

Weather History for KLTS - May, 2014

Change the Weather History Date:

Thursday, May 1, 2014

  Actual Average Record
Temperature  
Mean Temperature 57 °F -  
Max Temperature 73 °F 77 °F 98 °F (2002)
Min Temperature 41 °F 53 °F 37 °F (2017)
Degree Days  
Heating Degree Days 8    
Growing Degree Days 7 (Base 50)    
Moisture  
Dew Point 26 °F    
Average Humidity 29    
Maximum Humidity 53    
Minimum Humidity 18    
Precipitation  
Precipitation 0.00 in - - ()
Sea Level Pressure  
Sea Level Pressure 30.11 in    
Wind  
Wind Speed 10 mph (NW)    
Max Wind Speed 22 mph    
Max Gust Speed 28 mph    
Visibility 10 miles    
Events      
Averages and records for this station are not official NWS values.
T = Trace of Precipitation, MM = Missing Value Source: NWS Daily Summary

Daily Weather History Graph

Daily Weather History Graph

Search for Another Location

Airport or City:

Astronomy

May. 01, 2014 Rise Set
Actual Time 6:46 AM CDT 8:22 PM CDT
Civil Twilight 6:19 AM CDT 8:49 PM CDT
Nautical Twilight 5:47 AM CDT 9:21 PM CDT
Astronomical Twilight 5:13 AM CDT 9:55 PM CDT
Moon 8:38 AM CDT (5/1) 10:54 PM CDT (5/1)
Length of Visible Light 14h 29m
Length of Day
13h 35m
Waxing Crescent, 7% of the Moon is Illuminated
May 1
Waxing Crescent
May 6
First Quarter
May 14
Full
May 21
Last Quarter
May 28
New

Hourly Weather History & Observations

Time (CDT) Temp. Windchill Dew Point Humidity Pressure Visibility Wind Dir Wind Speed Gust Speed Precip Events Conditions
12:58 AM 50.2 °F - 22.5 °F 34% 30.17 in 10.0 mi NW 8.1 mph - N/A   Clear
1:58 AM 48.0 °F - 23.4 °F 38% 30.17 in 10.0 mi NW 5.8 mph - N/A   Clear
2:58 AM 42.6 °F 39.9 °F 24.3 °F 48% 30.17 in 10.0 mi NNW 4.6 mph - N/A   Clear
3:58 AM 44.8 °F 39.4 °F 23.5 °F 43% 30.17 in 10.0 mi NNW 10.4 mph - N/A   Clear
4:58 AM 41.0 °F 37.1 °F 24.8 °F 53% 30.18 in 10.0 mi NW 5.8 mph - N/A   Clear
5:58 AM 41.5 °F 35.9 °F 25.2 °F 52% 30.18 in 10.0 mi NNW 9.2 mph - N/A   Clear
6:58 AM 41.2 °F 38.2 °F 24.8 °F 52% 30.19 in 10.0 mi WNW 4.6 mph - N/A   Clear
7:58 AM 44.6 °F 40.2 °F 26.2 °F 49% 30.20 in 10.0 mi NNW 8.1 mph - N/A   Clear
8:58 AM 55.4 °F - 26.4 °F 33% 30.19 in 10.0 mi NW 11.5 mph - N/A   Clear
9:58 AM 61.0 °F - 27.0 °F 27% 30.21 in 10.0 mi NNW 13.8 mph - N/A   Clear
10:58 AM 63.5 °F - 28.0 °F 26% 30.19 in 10.0 mi NNW 16.1 mph 20.7 mph N/A   Clear
11:58 AM 65.5 °F - 27.1 °F 24% 30.17 in 10.0 mi NNW 11.5 mph 18.4 mph N/A   Clear
12:52 PM 68.0 °F - 26.6 °F 21% 30.15 in 10.0 mi WNW 15.0 mph 23.0 mph N/A   Clear
12:58 PM 67.8 °F - 27.1 °F 22% 30.14 in 10.0 mi NW 12.7 mph 23.0 mph N/A   Clear
1:58 PM 69.3 °F - 26.4 °F 20% 30.10 in 10.0 mi WNW 13.8 mph 21.9 mph N/A   Clear
2:58 PM 70.9 °F - 27.1 °F 20% 30.08 in 10.0 mi West 15.0 mph 25.3 mph N/A   Clear
3:29 PM 73.4 °F - 26.6 °F 18% 30.07 in 10.0 mi WNW 17.3 mph - N/A   Clear
3:58 PM 72.3 °F - 27.0 °F 18% 30.05 in 10.0 mi NNW 20.7 mph 27.6 mph N/A   Clear
4:21 PM 73.4 °F - 26.6 °F 18% 30.05 in 10.0 mi North 21.9 mph 26.5 mph N/A   Clear
4:58 PM 73.0 °F - 26.2 °F 18% 30.03 in 10.0 mi NW 16.1 mph 26.5 mph N/A   Partly Cloudy
5:01 PM 73.4 °F - 26.6 °F 18% 30.04 in 10.0 mi WNW 12.7 mph 26.5 mph N/A   Partly Cloudy
5:58 PM 71.8 °F - 25.5 °F 18% 30.03 in 10.0 mi NW 13.8 mph 23.0 mph N/A   Partly Cloudy
6:58 PM 70.5 °F - 25.3 °F 18% 30.02 in 10.0 mi NW 17.3 mph - N/A   Partly Cloudy
7:58 PM 68.4 °F - 23.9 °F 19% 30.02 in 10.0 mi NNW 8.1 mph - N/A   Mostly Cloudy
8:58 PM 65.1 °F - 24.6 °F 22% 30.03 in 10.0 mi NW 5.8 mph - N/A   Mostly Cloudy
9:58 PM 62.6 °F - 26.1 °F 25% 30.03 in 10.0 mi West 5.8 mph - N/A   Mostly Cloudy
10:58 PM 62.1 °F - 25.3 °F 25% 30.05 in 10.0 mi NW 8.1 mph - N/A   Overcast
11:58 PM 59.4 °F - 24.8 °F 27% 30.04 in 10.0 mi WNW 4.6 mph - N/A   Clear